Location: Quedlinburg
(51.7921°N, 11.1414°E)
Time: 20:53:25
(UTC+02:00)

RS-15 - Pass Details

Date: 16 March 2026
Orbit: 1893 x 2152 km, 64.8° (Epoch: 17 April)

Event Time Altitude Azimuth Distance (km) Brightness Sun altitude
Rises 20:03:38 0° 199° (SSW) 5,263 10.3 -16.3°
Reaches altitude 10° 20:06:53 10° 196° (SSW) 4,269 9.8 -16.8°
Maximum altitude 20:17:28 62° 120° (ESE) 2,113 7.9 -18.3°
Drops below altitude 10° 20:28:24 10° 44° (NE) 4,401 9.7 -19.9°
Sets 20:31:48 0° 41° (NE) 5,434 10.2 -20.4°
